Regional Weather Roundup
Issued by NWS

Home | Current Version | Previous Version | Text Only | Print | Product List | Glossary On
Versions: 1 2 3 4 5 6 7 8 9 10 11 12 13 14 15 16 17 18 19 20 21 22 23 24 25 26 27
000
ASUS46 KPQR 230710
RWROR

OREGON REGIONAL WEATHER ROUNDUP
NATIONAL WEATHER SERVICE PORTLAND OR
1100 PM PST WED NOV 22 2017

NOTE: "FAIR" INDICATES FEW OR NO CLOUDS BELOW 12,000 FEET WITH
NO SIGNIFICANT WEATHER AND/OR OBSTRUCTIONS TO VISIBILITY.

ORZ001>013-230800-
NORTHWEST OREGON


CITY           SKY/WX    TMP DP  RH WIND       PRES   REMARKS
ASTORIA        LGT RAIN  57  56  96 SW21G32   29.91R FOG
NEWPORT        RAIN      55  55 100 S18       30.01R
PORTLAND       CLOUDY    55  54  96 E15       29.95F
VANCOUVER WA   CLOUDY    57  57 100 E9        29.94F
SCAPPOOSE      LGT RAIN  58  57  97 CALM      29.93F
HILLSBORO      LGT RAIN  60  58  92 S10       29.94S FOG
AURORA         CLOUDY    61  60  97 S12       29.96F
MCMINNVILLE    LGT RAIN  62  60  93 SW8       29.96S
SALEM          CLOUDY    61  58  90 S12       29.96S
CORVALLIS      LGT RAIN  59  58  96 SE5       29.99F FOG
EUGENE         LGT RAIN  58  58 100 S5        30.00S
$$

ORZ021-028-230800-
SOUTHWEST OREGON


CITY           SKY/WX    TMP DP  RH WIND       PRES   REMARKS
NORTH BEND     LGT RAIN  64  63  94 S15G26    30.03R
BROOKINGS      RAIN      57  56  96 SE7       30.10F FOG
ROSEBURG       LGT RAIN  60  58  92 CALM      30.03R
SEXTON SUMMIT  CLOUDY    52  49  89 S14G28    30.12R
GRANTS PASS    MOCLDY    55  55 100 CALM      30.12S
MEDFORD        CLOUDY    58  56  93 N3        30.09S
$$

ORZ014>016-041-230800-
COLUMBIA GORGE


CITY           SKY/WX    TMP DP  RH WIND       PRES   REMARKS
TROUTDALE      CLOUDY    55  53  93 E7        29.97S
HOOD RIVER     LGT RAIN  50  48  93 CALM      29.98F
THE DALLES     LGT RAIN  49  48  97 CALM      29.97F FOG
$$

ORZ029>031-041-044-049-050-061>064-502-503-505>511-230800-
EASTERN OREGON


CITY           SKY/WX    TMP DP  RH WIND       PRES   REMARKS
MADRAS         CLOUDY    63  63 100 S13       30.01F
REDMOND        CLOUDY    58  46  64 S8        30.05F
BEND           CLOUDY    59  45  58 SW9       30.08S
PRINEVILLE     CLOUDY    55  46  71 CALM      30.07S
KLAMATH FALLS  CLOUDY    48  45  89 NW3       30.20R
LAKEVIEW       MOCLDY    49  41  74 S12       30.24S
HERMISTON      CLOUDY    46  46 100 NW5       29.97F
PENDLETON      CLOUDY    47  45  93 CALM      29.97F
JOHN DAY       CLOUDY    64  40  42 S13       30.13S
MEACHAM        LGT RAIN  56  44  64 S3        30.07F
LA GRANDE      LGT RAIN  59  48  67 S16G24    30.09F
BAKER CITY     CLOUDY    54  47  77 SE5       30.15F
BURNS          CLOUDY    43  42  97 CALM      30.19F
ROME             N/A     53  44  71 SE6       30.19F
ONTARIO        CLOUDY    48  48 100 CALM      30.19S FOG
$$




USA.gov is the U.S. government's official web portal to all federal, state and local government web resources and services.